When you browse on this site, cookies collect data to enhance your experience and personalize the content and advertising you see.
Visit our Privacy Policy to learn more. By continuing to use the site, you agree to this use of cookies and data.
  • In Österreich
  • Länderverzeichnis
  • Für 7 Tage
  • Wassertemperatur
  • Satellitenkarten
  • Wetterkarte
  • News
  • Widgets
  • user-avatar
    Anmelden

    Stündliche Wetter Lankaran

    Heute, 20 Juli, Samstag

    Zeit Temperatur Niederschläge Wind Luftdruck Luftfeuchtigkeit
    00:00 +16°C° 0 mm 1 m/S 634 mmHg 65%
    01:00 +16°C° 0 mm 1 m/S 634 mmHg 65%
    02:00 +16°C° 0 mm 2 m/S 633 mmHg 64%
    03:00 +16°C° 0 mm 2 m/S 633 mmHg 61%
    04:00 +16°C° 0 mm 2 m/S 634 mmHg 59%
    05:00 +17°C° 0 mm 2 m/S 635 mmHg 57%
    06:00 +17°C° 0 mm 2 m/S 635 mmHg 55%
    07:00 +19°C° 0 mm 2 m/S 636 mmHg 50%
    08:00 +21°C° 0 mm 3 m/S 637 mmHg 46%
    09:00 +23°C° 0 mm 4 m/S 637 mmHg 40%
    10:00 +23°C° 0 mm 4 m/S 637 mmHg 39%
    11:00 +25°C° 0 mm 5 m/S 638 mmHg 38%
    12:00 +25°C° 0 mm 5 m/S 638 mmHg 37%
    13:00 +25°C° 0 mm 5 m/S 637 mmHg 38%
    14:00 +25°C° 0 mm 5 m/S 637 mmHg 39%
    15:00 +25°C° 0 mm 5 m/S 636 mmHg 39%
    16:00 +23°C° 0 mm 4 m/S 636 mmHg 42%
    17:00 +21°C° 0 mm 4 m/S 636 mmHg 45%
    18:00 +20°C° 0 mm 3 m/S 636 mmHg 48%
    19:00 +19°C° 0 mm 3 m/S 636 mmHg 51%
    20:00 +18°C° 0 mm 2 m/S 635 mmHg 54%
    21:00 +16°C° 0 mm 2 m/S 635 mmHg 58%
    22:00 +16°C° 0 mm 1 m/S 635 mmHg 58%
    23:00 +16°C° 0 mm 1 m/S 636 mmHg 58%

    Morgen, 21 Juli, Sonntag

    Zeit Temperatur Niederschläge Wind Luftdruck Luftfeuchtigkeit
    00:00 +16°C° 0 mm 1 m/S 636 mmHg 59%
    01:00 +16°C° 0 mm 1 m/S 636 mmHg 59%
    02:00 +16°C° 0 mm 1 m/S 635 mmHg 60%
    03:00 +16°C° 0 mm 1 m/S 635 mmHg 61%
    04:00 +18°C° 0 mm 1 m/S 636 mmHg 58%
    05:00 +18°C° 0 mm 1 m/S 636 mmHg 56%
    06:00 +19°C° 0 mm 1 m/S 637 mmHg 53%
    07:00 +21°C° 0 mm 1 m/S 637 mmHg 48%
    08:00 +23°C° 0 mm 2 m/S 638 mmHg 44%
    09:00 +25°C° 0 mm 2 m/S 638 mmHg 39%
    10:00 +26°C° 0 mm 3 m/S 638 mmHg 37%
    11:00 +27°C° 0 mm 3 m/S 638 mmHg 35%
    12:00 +29°C° 0 mm 4 m/S 638 mmHg 33%
    13:00 +29°C° 0 mm 4 m/S 637 mmHg 33%
    14:00 +29°C° 0 mm 4 m/S 637 mmHg 33%
    15:00 +29°C° 0 mm 4 m/S 636 mmHg 32%
    16:00 +28°C° 0 mm 3 m/S 636 mmHg 37%
    17:00 +26°C° 0 mm 3 m/S 635 mmHg 42%
    18:00 +25°C° 0 mm 2 m/S 635 mmHg 46%
    19:00 +23°C° 0 mm 2 m/S 635 mmHg 48%
    20:00 +22°C° 0 mm 1 m/S 634 mmHg 50%
    21:00 +18°C° 0 mm 0 m/S 634 mmHg 52%
    22:00 +18°C° 0 mm 0 m/S 634 mmHg 50%
    23:00 +18°C° 0 mm 0 m/S 634 mmHg 48%

    übermorgen, 22 Juli, Montag

    Zeit Temperatur Niederschläge Wind Luftdruck Luftfeuchtigkeit
    00:00 +18°C° 0 mm 0 m/S 634 mmHg 47%
    01:00 +18°C° 0 mm 0 m/S 633 mmHg 48%
    02:00 +18°C° 0 mm 0 m/S 633 mmHg 49%
    03:00 +17°C° 0 mm 0 m/S 633 mmHg 50%
    04:00 +18°C° 0 mm 0 m/S 633 mmHg 48%
    05:00 +19°C° 0 mm 0 m/S 634 mmHg 46%
    06:00 +20°C° 0 mm 0 m/S 634 mmHg 45%
    07:00 +24°C° 0 mm 1 m/S 635 mmHg 41%
    08:00 +26°C° 0 mm 2 m/S 635 mmHg 37%
    09:00 +28°C° 0 mm 2 m/S 636 mmHg 33%
    10:00 +29°C° 0 mm 3 m/S 636 mmHg 32%
    11:00 +30°C° 0 mm 3 m/S 636 mmHg 32%
    12:00 +33°C° 0 mm 3 m/S 636 mmHg 31%
    13:00 +31°C° 0 mm 3 m/S 636 mmHg 34%
    14:00 +30°C° 0 mm 4 m/S 635 mmHg 36%
    15:00 +30°C° 0 mm 4 m/S 634 mmHg 39%
    16:00 +28°C° 0 mm 4 m/S 634 mmHg 42%
    17:00 +27°C° 0 mm 3 m/S 633 mmHg 46%
    18:00 +25°C° 0 mm 2 m/S 633 mmHg 49%
    19:00 +24°C° 0 mm 2 m/S 633 mmHg 50%
    20:00 +23°C° 0 mm 1 m/S 633 mmHg 51%
    21:00 +22°C° 0 mm 1 m/S 633 mmHg 52%
    22:00 +21°C° 0 mm 1 m/S 632 mmHg 55%
    23:00 +20°C° 0 mm 1 m/S 632 mmHg 58%

    23 Juli, Dienstag

    Zeit Temperatur Niederschläge Wind Luftdruck Luftfeuchtigkeit
    00:00 +19°C° 0 mm 2 m/S 632 mmHg 61%
    01:00 +18°C° 0 mm 2 m/S 632 mmHg 63%
    02:00 +18°C° 0 mm 2 m/S 632 mmHg 64%
    03:00 +17°C° 0 mm 3 m/S 632 mmHg 66%
    04:00 +17°C° 0 mm 2 m/S 632 mmHg 67%
    05:00 +17°C° 0 mm 2 m/S 632 mmHg 68%
    06:00 +17°C° 0 mm 2 m/S 632 mmHg 69%
    07:00 +19°C° 0 mm 2 m/S 633 mmHg 62%
    08:00 +20°C° 0 mm 3 m/S 634 mmHg 56%
    09:00 +22°C° 0 mm 3 m/S 634 mmHg 49%
    10:00 +23°C° 0 mm 4 m/S 634 mmHg 48%
    11:00 +25°C° 0 mm 4 m/S 634 mmHg 46%
    12:00 +26°C° 0 mm 4 m/S 634 mmHg 45%
    13:00 +26°C° 0 mm 4 m/S 634 mmHg 44%
    14:00 +26°C° 0 mm 4 m/S 633 mmHg 44%
    15:00 +26°C° 0 mm 4 m/S 633 mmHg 43%
    16:00 +25°C° 0 mm 4 m/S 632 mmHg 46%
    17:00 +24°C° 0 mm 3 m/S 632 mmHg 48%
    18:00 +22°C° 0 mm 3 m/S 632 mmHg 50%
    19:00 +21°C° 0 mm 2 m/S 632 mmHg 51%
    20:00 +20°C° 0 mm 2 m/S 632 mmHg 52%
    21:00 +19°C° 0 mm 2 m/S 632 mmHg 53%
    22:00 +20°C° 0 mm 1 m/S 632 mmHg 53%
    23:00 +20°C° 0 mm 1 m/S 631 mmHg 53%

    24 Juli, Mittwoch

    Zeit Temperatur Niederschläge Wind Luftdruck Luftfeuchtigkeit
    00:00 +19°C° 0 mm 1 m/S 631 mmHg 53%
    01:00 +19°C° 0 mm 1 m/S 631 mmHg 56%
    02:00 +18°C° 0 mm 1 m/S 631 mmHg 59%
    03:00 +16°C° 0 mm 1 m/S 630 mmHg 61%
    04:00 +18°C° 0 mm 1 m/S 631 mmHg 59%
    05:00 +18°C° 0 mm 1 m/S 631 mmHg 57%
    06:00 +19°C° 0 mm 1 m/S 631 mmHg 55%
    07:00 +20°C° 0 mm 2 m/S 632 mmHg 50%
    08:00 +23°C° 0 mm 2 m/S 633 mmHg 45%
    09:00 +24°C° 0 mm 2 m/S 634 mmHg 40%
    10:00 +25°C° 0 mm 3 m/S 634 mmHg 38%
    11:00 +27°C° 0 mm 3 m/S 634 mmHg 36%
    12:00 +28°C° 0 mm 4 m/S 634 mmHg 34%
    13:00 +28°C° 0 mm 4 m/S 633 mmHg 34%
    14:00 +28°C° 0 mm 4 m/S 633 mmHg 34%
    15:00 +28°C° 0 mm 3 m/S 633 mmHg 35%
    16:00 +27°C° 0 mm 3 m/S 632 mmHg 38%
    17:00 +26°C° 0 mm 2 m/S 632 mmHg 41%
    18:00 +24°C° 0 mm 2 m/S 632 mmHg 44%
    19:00 +23°C° 0 mm 2 m/S 632 mmHg 47%
    20:00 +22°C° 0 mm 1 m/S 632 mmHg 50%
    21:00 +21°C° 0 mm 1 m/S 632 mmHg 53%
    22:00 +21°C° 0 mm 1 m/S 631 mmHg 53%
    23:00 +20°C° 0 mm 1 m/S 631 mmHg 53%

    25 Juli, Donnerstag

    Zeit Temperatur Niederschläge Wind Luftdruck Luftfeuchtigkeit
    00:00 +18°C° 0 mm 0 m/S 631 mmHg 53%
    01:00 +18°C° 0 mm 0 m/S 631 mmHg 53%
    02:00 +18°C° 0 mm 0 m/S 631 mmHg 53%
    03:00 +17°C° 0 mm 0 m/S 631 mmHg 53%
    04:00 +18°C° 0 mm 0 m/S 631 mmHg 51%
    05:00 +19°C° 0 mm 0 m/S 632 mmHg 49%
    06:00 +20°C° 0 mm 0 m/S 632 mmHg 46%
    07:00 +24°C° 0 mm 1 m/S 633 mmHg 42%
    08:00 +26°C° 0 mm 2 m/S 634 mmHg 37%
    09:00 +28°C° 0 mm 2 m/S 634 mmHg 32%
    10:00 +29°C° 0 mm 3 m/S 634 mmHg 31%
    11:00 +30°C° 0 mm 3 m/S 634 mmHg 30%
    12:00 +32°C° 0 mm 4 m/S 634 mmHg 29%
    13:00 +32°C° 0 mm 4 m/S 634 mmHg 29%
    14:00 +30°C° 0 mm 4 m/S 633 mmHg 30%
    15:00 +30°C° 0 mm 4 m/S 633 mmHg 30%
    16:00 +29°C° 0 mm 3 m/S 632 mmHg 34%
    17:00 +27°C° 0 mm 3 m/S 631 mmHg 38%
    18:00 +26°C° 0 mm 2 m/S 631 mmHg 42%
    19:00 +24°C° 0 mm 2 m/S 631 mmHg 44%
    20:00 +23°C° 0 mm 1 m/S 630 mmHg 47%
    21:00 +19°C° 0 mm 0 m/S 630 mmHg 50%
    22:00 +19°C° 0 mm 0 m/S 630 mmHg 50%
    23:00 +19°C° 0 mm 0 m/S 630 mmHg 50%
    Mehr zeigen